Regional Weather Roundup
Issued by NWS

Home | Current Version | Previous Version | Graphics & Text | Print | Product List | Glossary On
Versions: 1 2 3 4 5 6 7 8 9 10 11 12 13 14 15 16 17 18 19 20 21 22 23 24 25 26 27 28 29 30 31 32 33 34 35 36 37 38 39 40 41 42 43 44 45 46 47 48 49 50
000
ASUS43 KDMX 280901
RWRIA

WEATHER ROUNDUP FOR IOWA
NATIONAL WEATHER SERVICE DES MOINES IA
400 AM CDT FRI JUL 28 2017

NOTE: "FAIR" INDICATES FEW OR NO CLOUDS BELOW 12,000 FEET WITH NO
SIGNIFICANT WEATHER AND/OR OBSTRUCTIONS TO VISIBILITY.

* - THESE STATIONS ARE NOT NWS STATIONS...THUS NOT UNDER NWS
QUALITY CONTROL.  THEY ALSO DO NOT REPORT WEATHER SUCH
AS PRECIPITATION OR FOG.

IAZ001>003-012>014-020>022-031>034-043>046-281000-
   NORTHWEST IOWA

CITY           SKY/WX    TMP DP  RH WIND       PRES   REMARKS
CARROLL *      PTCLDY    64  64 100 CALM      30.02F
DENISON *      CLEAR     63  63 100 CALM      30.05S
ORANGE CITY *  CLEAR     66  63  88 NE3       30.06F
SHELDON *      CLEAR     57  57 100 CALM      30.05F
SIOUX CITY     CLEAR     63  62  97 W3        30.04S
SPENCER        CLEAR     58  58 100 CALM      30.06F
STORM LAKE *   CLEAR     66  63  88 N7        30.05F
$$

IAZ055>058-069>071-079>083-090>094-281000-
   SOUTHWEST IOWA

CITY           SKY/WX    TMP DP  RH WIND       PRES   REMARKS
ATLANTIC *     CLEAR     63  63 100 N5        30.02S
AUDUBON *      CLEAR     63  59  88 CALM      30.04S
CLARINDA *     MOCLDY    63  63 100 N5        30.02S
COUNCIL BLFS * CLEAR     64  64 100 N6        30.02S
CRESTON *      CLEAR     63  61  94 NE7       30.03S
HARLAN  *      PTCLDY    64  64 100 N5        30.06S
LAMONI         PTCLDY    67  62  84 NE7       30.00R
RED OAK *      CLEAR     63  63 100 CALM      30.01S
SHENANDOAH *   PTCLDY    64  63  94 NE5       30.01S
$$

IAZ047>049-059>061-072>074-084-281000-
   CENTRAL IOWA

CITY           SKY/WX    TMP DP  RH WIND       PRES   REMARKS
AMES           CLEAR     64  64 100 N5        30.02S
ANKENY *       CLEAR     63  61  94 CALM      30.02S
BOONE *        CLEAR     64  63  94 N5        30.02S
CHARITON *     CLEAR     64  61  88 N6        30.00S
DES MOINES     CLEAR     69  64  84 CALM      30.00S
GRINNELL*      CLEAR     63  59  86 CALM      30.03R
KNOXVILLE *    CLEAR     68  61  77 NE6       29.99S
MARSHALLTOWN   CLEAR     64  63  96 N5        30.00F
NEWTON *       CLEAR     66  61  82 N6        30.01S
PELLA *        CLEAR     64  59  86 CALM      30.01S
PERRY *          N/A     63  62  97 N3        30.02S
$$

IAZ004>006-015-016-023>025-035-036-281000-
   NORTH CENTRAL IOWA

CITY           SKY/WX    TMP DP  RH WIND       PRES   REMARKS
ALGONA *       CLEAR     63  63 100 N5        30.05S
ESTHERVILLE    CLEAR     59  59 100 N3        30.06S
FORT DODGE *   CLEAR     64  61  88 CALM      30.04F
MASON CITY     CLEAR     60  59  96 CALM      30.06S
FOREST CITY *    N/A     61  61 100 CALM      30.05S
WEBSTER CITY * CLEAR     61  61 100 N3        30.01F
IOWA FALLS *     N/A     63  60  91 CALM      30.04S
$$

IAZ007>011-017>019-026>030-037>042-050>054-066-281000-
   NORTHEAST IOWA

CITY           SKY/WX    TMP DP  RH WIND       PRES   REMARKS
CHARLES CITY * CLEAR     63  63 100 N5        30.04S
DECORAH *      CLEAR     63  63 100 N3        30.03S
DUBUQUE          N/A    N/A N/A N/A MISG      30.02S
MONTICELLO *   CLEAR     61  61 100 CALM      30.01R
OELWEIN *      CLEAR     66  64  94 SE6       30.03S
WATERLOO       CLEAR     62  61  96 NW3       30.01S
$$

IAZ064-065-067-068-078-281000-
   EAST CENTRAL IOWA

CITY           SKY/WX    TMP DP  RH WIND       PRES   REMARKS
DAVENPORT      PTCLDY    61  57  87 NE7       30.00S
IOWA CITY      CLEAR     69  61  75 CALM      30.00S
MUSCATINE *    PTCLDY    64  61  88 N5        29.98S
QUAD CITIES    CLEAR     65  58  78 NE3       29.97S
$$

IAZ062-063-075>077-085>089-095>099-281000-
   SOUTHEAST IOWA

CITY           SKY/WX    TMP DP  RH WIND       PRES   REMARKS
BURLINGTON     CLEAR     68  60  75 NE12      29.96S
FAIRFIELD *    PTCLDY    63  61  94 NE8       29.98S
FORT MADISON * CLEAR     66  63  88 N3        29.97S
KEOKUK *       CLEAR     68  61  77 N3        29.95S
OSKALOOSA *      N/A     62  60  93 N5        30.00S
OTTUMWA        CLEAR     66  62  87 NE6       29.99S
WASHINGTON *   CLEAR     64  63  94 NE6       30.00S
$$

ABBREVIATIONS USED IN REMARKS
   TC - TEMPERATURES IN CELSIUS
  WCI - WIND CHILL INDEX
   HX - HEAT INDEX
  VSB - VISIBILITY
$$





USA.gov is the U.S. government's official web portal to all federal, state and local government web resources and services.